www.pogodaiklimat.ru

Погода и климат >> Архив погоды >> Канада >> Нунавут >> Арктик Бей


ПОГОДА в Арктик Бей

  • Прогноз погоды в Арктик Бей
  • Монитор погоды в Арктик Бей

АРХИВ ПОГОДЫ в Арктик Бей

Время (UTC), дата Ветер
(напр.,м/с)
 
Видим.   Явления Облачность Т
(С)
Тd
(С)
f
(%)
Тe
(С)
Тes
(С)
Комфортность P
(гПа)
Po
(гПа)
Тmin
(С)
Tmax
(С)
R
(мм)
R24
(мм)
S
(см)
15 18.08 СЗ 3 н/о н/о +5.3 +3.4 88 +2 +2 1015.8 1014.5
18 18.08 З 3 н/о н/о +5.8 +3.4 85 +3 +3 1015.8 1014.5 +3.5 +6.8
21 18.08 З 2 н/о н/о +6.3 +3.2 81 +5 +5 1015.9 1014.6
00 19.08 СВ 1 н/о н/о +6.0 +3.2 82 +6 +6 1015.7 1014.4 +3.5 +7.6
03 19.08 н/о н/о +4.9 +3.5 91 1016.1 1014.8
06 19.08 С 1 н/о н/о +4.6 +3.0 89 +3 +3 1016.3 1015.0 +3.5 +7.6
09 19.08 С 1 н/о н/о +4.5 +2.6 87 +3 +3 1016.7 1015.4
12 19.08 В 1 н/о н/о +7.2 +3.4 77 +7 +7 1017.2 1015.9 +3.6 +7.6
15 19.08 З 2 н/о н/о +8.2 +3.1 70 +7 +7 1017.8 1016.5
18 19.08 З 5 н/о н/о +8.5 +4.2 74 +5 +5 1017.8 1016.5 +3.6 +9.3
21 19.08 З 4 н/о н/о +10.8 +4.0 63 +9 +9 1017.7 1016.4
00 20.08 СЗ 6 н/о н/о +9.4 +1.8 59 +6 +6 1018.1 1016.8 +3.6 +10.9
03 20.08 СЗ 6 н/о н/о +5.8 +1.2 72 +1 +1 1019.0 1017.7
06 20.08 СЗ 2 н/о н/о +3.4 -0.1 78 +1 +1 1019.3 1018.0 +3.4 +10.9
09 20.08 С 2 н/о н/о +2.9 +0.8 86 0 0 1019.7 1018.4
12 20.08 З 4 н/о н/о +4.3 +1.4 81 0 0 1020.2 1018.9 +2.2 +10.9
15 20.08 СЗ 5 н/о н/о +5.6 +0.6 70 +2 +2 1020.7 1019.4
18 20.08 СЗ 4 н/о н/о +6.8 +1.4 68 +3 +3 1020.6 1019.3 +2.2 +7.1
21 20.08 З 5 н/о н/о +7.1 +2.0 70 +3 +3 1020.7 1019.4
00 21.08 СЗ 4 н/о н/о +7.4 +1.8 68 +4 +4 1020.6 1019.3 +2.2 +8.2
03 21.08 СЗ 5 н/о н/о +4.0 +1.3 83 -1 -1 1020.5 1019.2
06 21.08 СЗ 3 н/о н/о +3.8 +1.2 83 0 0 1020.8 1019.5 +2.2 +8.2 2
09 21.08 СЗ 1 н/о н/о +2.3 0.0 85 +2 +2 1020.5 1019.2
12 21.08 В 1 н/о н/о +4.3 -0.3 72 +4 +4 1020.0 1018.7 +1.7 +8.2
15 21.08 З 2 н/о н/о +4.3 +0.5 76 +2 +2 1018.8 1017.5
18 21.08 З 3 н/о н/о +4.8 -0.1 71 +1 +1 1018.2 1016.9 +1.7 +5.2
21 21.08 СЗ 4 н/о н/о +6.2 +1.0 69 +3 +3 1016.9 1015.6
00 22.08 ЮЗ 1 н/о н/о +6.1 +1.3 71 +5 +5 1016.0 1014.7 +1.7 +6.8
03 22.08 ЮВ 2 н/о н/о +6.0 +1.2 71 +4 +4 1014.8 1013.5
06 22.08 С 1 н/о н/о +5.3 +2.9 84 +4 +4 1014.3 1013.0 +1.7 +6.8
09 22.08 ЮВ 2 н/о н/о +5.7 +4.7 93 +3 +3 1013.8 1012.5 0.5
12 22.08 С 1 н/о {осадки} н/о +6.6 +5.5 93 +5 +5 1013.9 1012.6 +5.0 +6.8 0.8
15 22.08 ЮВ 1 н/о н/о +8.9 +6.6 85 +8 +8 1013.0 1011.7
18 22.08 З 3 н/о н/о +7.5 +5.0 84 +5 +5 1012.7 1011.4 +4.7 +9.5
21 22.08 СЗ 1 н/о н/о +8.5 +5.5 81 +9 +9 1011.7 1010.4
00 23.08 ЮВ 6 н/о н/о +9.8 +6.4 79 +6 +6 1010.4 1009.1 +5.0 +10.0 0.7
03 23.08 ЮВ 10 н/о н/о +9.1 +5.4 78 +4 +4 1008.0 1006.7 2
06 23.08 ЮВ 10 н/о {осадки} н/о +10.9 +4.7 66 +7 +7 1005.3 1004.0 +5.0 +11.0 2 4
09 23.08 ЮВ 15 н/о н/о +10.4 +4.1 65 +5 +5 1001.9 1000.6
12 23.08 ЮВ 14 н/о н/о +10.1 +3.9 65 +5 +5 999.2 997.9 +9.1 +11.0
15 23.08 ЮВ 14 н/о н/о +11.0 +3.6 60 +6 +6 997.9 996.6
18 23.08 ЮВ 17 н/о н/о +12.5 +3.2 53 +8 +8 993.7 992.5 +6.9 +12.5
21 23.08 ЮВ 16 н/о н/о +12.1 +4.0 58 +8 +8 992.5 991.3
00 24.08 ЮВ 13 н/о {осадки} н/о +9.9 +5.9 76 +5 +5 990.9 989.7 +9.7 +12.7 0.4
03 24.08 Ю 9 н/о н/о +8.8 +4.1 72 +4 +4 991.5 990.3 0.3
06 24.08 Ю 7 н/о н/о +7.3 +2.7 73 +3 +3 992.3 991.1 +7.1 +12.7 0.3 14
09 24.08 ЮВ 7 н/о {осадки} н/о +6.3 +2.8 78 +1 +1 992.0 990.8 0.5
12 24.08 Ю 6 н/о {осадки} н/о +4.9 -0.3 69 0 0 995.0 993.7 +4.9 +12.7 0.5
15 24.08 З 5 н/о н/о +4.1 +0.9 80 -1 -1 1000.7 999.4 0.5
18 24.08 З 6 н/о н/о +4.5 +1.7 82 -1 -1 1004.6 1003.3 +3.9 +7.4 0.5
21 24.08 З 6 н/о н/о +3.9 0.0 76 -2 -2 1007.9 1006.6
00 25.08 З 4 н/о н/о +4.4 +1.0 79 0 0 1009.6 1008.3 +3.5 +5.0
03 25.08 З 3 н/о н/о +4.7 +0.5 74 +2 +2 1010.4 1009.1
06 25.08 В 3 н/о н/о +3.2 -1.0 74 -1 -1 1011.0 1009.7 +3.1 +7.4 14
09 25.08 В 4 н/о н/о +3.8 -1.6 68 -0 -0 1010.0 1008.7
12 25.08 ЮВ 7 н/о н/о +6.3 +0.5 66 +2 +2 1008.8 1007.5 +2.9 +7.4

 

Местоположение метеостанции Арктик Бей (Нунавут, Канада): широта 73.00 долгота -85.01 высота над уровнем моря 10 м.

В архиве по умолчанию представлена погода в Арктик Бей за последнюю неделю. Архивные данные за месяц целиком и за предыдущие месяцы, начиная с января 2011 года, Вы можете получить, выбрав интересующий диапазон дат из раскрывающегося списка и нажав кнопку "Ввод!".


*Определитесь, кто Вы:
робот инопланетянин человек

Внимание! Время в таблицах - всемирное. Для получения местного времени необходимо прибавить поправку, которая равна -6 ч.

Смотрите также архив погоды в соседних городах и на ближайших метеорологических станциях:

Погода в Понд-Инлете (Нунавут, Канада) (233 км)
Погода в Понд-Инлете (Нунавут, Канада) (233 км)
Погода в Аэропорту Ресольют Бэй (Нунавут, Канада) (362 км)
Погода в Ресольют Бэй (Нунавут, Канада) (362 км)
Погода на Острове Роули (Нунавут, Канада) (486 км)
Погода в Холл Бич (Нунавут, Канада) (489 км)
Погода в Талойоаке (Нунавут, Канада) (490 км)
Погода в Кугааруке (Нунавут, Канада) (527 км)
Погода в Kitsissut (Гренландия) (532 км)
Погода в Кам Фор (Нунавут, Канада) (536 км)

Пояснения к столбцам:

Ветер - указаны скорость ветра в м/с - средняя за 10 мин, порывы в срок и между сроками (в фигурных скобках) и направление, откуда дует ветер: С - северный, СВ - северо-восточный, В - восточный, ЮВ - юго-восточный, Ю - южный, ЮЗ - юго-западный, З - западный, СЗ - северо-западный.
Видимость - горизонтальная дальность видимости в метрах или километрах. При видимости от 1 до 10 км при отсутствии осадков обычно наблюдается дымка, при ухудшении видимости до 1 км и менее - туман. В сухую погоду видимость может ухудшаться дымом, пылью или мглою.
Явления - указаны атмосферные явления, наблюдавшиеся в срок или в последний час перед сроком; фигурными скобками обозначены явления, наблюдавшиеся между сроками (за 1-3 часа до срока); квадратными скобками обозначены град или гололедные отложения с указанием их диаметра в мм.
Облачность - указаны через наклонную черту общая и нижняя облачность в баллах и высота нижней границы облаков в метрах; квадратными скобками обозначены формы облаков: Ci - перистые, Cs - перисто-слоистые, Cc - перисто-кучевые, Ac - высококучевые, As - высокослоистые, Sc - слоисто-кучевые, Ns - слоисто-дождевые, Cu - кучевые, Cb - кучево-дождевые. Подробнее классификацию облаков см. в Атласе облаков (PDF).
T - Температура воздуха - температура, измеренная на высоте 2 м над землей.
Td - Температура точки росы - температура, при понижении до которой содержащийся в воздухе водяной пар достигнет насыщения.
f - Относительная влажность воздуха - влажноcть воздуха, измеренная на высоте 2 м над землей.
Te - Эффективная температура - температура, которую ощущает одетый по сезону человек в тени. Характеристика душности погоды. При расчете учитывается влияние влажности воздуха и скорости ветра на теплоощущения человека.
Tes - Эффективная температура на солнце - температура, которую ощущает человек, с поправкой на солнечный нагрев. Характеристика знойности погоды. Зависит от высоты солнца над горизонтом, облачности и скорости ветра. Ночью, в пасмурную погоду, а также при ветре 12 м/с и более поправка равна нулю.
P - Атмосферное давление - приведенное к уровню моря атмосферное давление.
Po - Атмосферное давление - измеренное на уровне метеостанции атмосферное давление.
Tmin - Минимальная температура - минимум температуры воздуха на высоте 2 м над землей.
Tmax - Максимальная температура - максимум температуры воздуха на высоте 2 м над землей.
R - Количество осадков - Количество выпавших осадков за период времени, мм. При наведении курсора мыши на число - период времени, за который выпало указанное количество осадков.
R24 - Количество осадков - Количество выпавших осадков за 24 часа, мм.
S - Снежный покров - Высота снежного покрова, см. При наведении курсора мыши на число - состояние снежного покрова и степень покрытия местности в баллах.